User: anonymous   Login
Location: Alphen
(52.1351°N, 4.6549°E)
Time: 14:06:25
(UTC+00:00)
Language:

Cosmos 2322 Rocket - Orbit

View from above orbital plane
View from above orbital plane
View from above satellite
View from above satellite

Ground track
Ground track

The orbit data is extracted from the following two-line orbital elements,

1 23705U 95058B   21125.91300292  .00000154  00000-0  10379-3 0  9994
2 23705  71.0217 292.3833 0014525 291.6869  68.2707 14.15152094317592
Epoch (UTC): 05 May 2021 21:54:43
Eccentricity: 0.0014525
inclination: 71.0217°
perigee height: 831 km
apogee height: 852 km
right ascension of ascending node: 292.3833°
argument of perigee: 291.6869°
revolutions per day: 14.15152094
mean anomaly at epoch: 68.2707°
orbit number at epoch: 31759

The dashed part of the orbit path shows where the satellite is in the earth's shadow,  

DLR